Location: Gwatt
(46.7204°N, 7.6223°E)
Time: 16:00:38
(UTC+00:00)

deb Explorer IX - Pass Details

Date: 24 January 2021
Orbit: 537 x 1102 km, 38.8° (Epoch: 04 March)

Event Time Altitude Azimuth Distance (km) Brightness Sun altitude
Rises 19:53:00 0° 261° (W) 3,488 ? -36.0°
Reaches altitude 10° 19:55:57 10° 252° (WSW) 2,446 ? -36.5°
Enters shadow 19:58:14 21° 238° (WSW) 1,721 ? -36.9°
Maximum altitude 20:01:02 33° 190° (S) 1,229 - -37.4°
Drops below altitude 10° 20:05:26 10° 126° (SE) 2,104 - -38.1°
Sets 20:07:48 0° 117° (ESE) 2,936 - -38.5°
